Weather Roundup
Issued by NWS Springfield, MO

Home | Current Version | Previous Version | Text Only | Print | Product List | Glossary On
Versions: 1 2 3 4 5 6 7 8 9 10 11 12 13 14 15 16 17 18 19 20 21 22 23 24 25 26 27 28 29 30 31 32 33 34 35 36 37 38 39 40 41 42 43 44 45 46 47 48 49 50
000
NZUS99 KSGF 252107
HRRSGF

HOURLY WEATHER
NATIONAL WEATHER SERVICE SPRINGFIELD MO
400 PM CDT SAT OCT 25 2014

......SGF CWA......

CITY           SKY/WX    TMP DP  RH WIND       PRES   REMARKS
SPRINGFIELD    SUNNY     83  61  47 CALM      30.03F
JOPLIN         SUNNY     82  64  54 W6        30.04S
WEST PLAINS    SUNNY     82  62  50 SW6       30.04S
ROLLA          SUNNY     79  60  52 N5        30.02F
OSAGE BEACH    SUNNY     81  59  47 SW6       30.03S
BRANSON        SUNNY     84  63  48 NW6       30.06S

......SURROUNDING SGF CWA......

CITY           SKY/WX    TMP DP  RH WIND       PRES   REMARKS
CHANUTE        SUNNY     84  65  52 SW8       30.02S
PARSONS        SUNNY     85  66  53 S7        30.03F
COFFEYVILLE    SUNNY     84  65  52 S7        30.02S
EMPORIA        SUNNY     86  61  42 SE6       30.01S
GROVE OK       SUNNY     84  63  48 SW5       30.04F
ROGERS AR      SUNNY     82  62  50 SW8       30.07S
SILOAM SPRINGS SUNNY     82  63  51 S6        30.07S
HARRISON AR    SUNNY     85  62  46 W3        30.05F
NEAR YELLVILLE SUNNY     84  63  48 NE7       30.03S

......KANSAS AND MISSOURI......

CITY           SKY/WX    TMP DP  RH WIND       PRES   REMARKS
KANSAS CTY INT SUNNY     79  55  43 CALM      30.03F
DOWNTOWN KC    SUNNY     82  55  39 VRB3      30.02S
COLUMBIA       SUNNY     79  60  52 S3        30.02F
SEDALIA        SUNNY     81  60  48 CALM      30.04S
ST JOSEPH      SUNNY     80  47  31 E3        30.03F
ST LOUIS       MOSUNNY   82  55  39 W8        30.01F
SPIRIT OF STL  SUNNY     80  52  37 N5        30.00S
KIRKSVILLE     SUNNY     78  51  38 N5        30.05S
WICHITA        SUNNY     90  54  29 S13       30.00F
TOPEKA         SUNNY     82  58  43 SE7       30.02F
OLATHE         SUNNY     81  59  47 E5        30.02F

......TENNESSEE......

CITY           SKY/WX    TMP DP  RH WIND       PRES   REMARKS
MEMPHIS        MOSUNNY   82  62  50 SW6       30.03S
NASHVILLE      PTSUNNY   80  62  54 VRB3      29.99F

......ARKANSAS.......

CITY           SKY/WX    TMP DP  RH WIND       PRES   REMARKS
FAYETTEVILLE   SUNNY     82  63  52 SW9       30.06S
FT SMITH       SUNNY     86  61  42 CALM      30.03S
LITTLE ROCK    MOSUNNY   86  62  44 SW10      30.02F

......OKLAHOMA.......

CITY           SKY/WX    TMP DP  RH WIND       PRES   REMARKS
TULSA          SUNNY     87  63  44 S7        30.00F
PONCA CITY     SUNNY     88  60  38 S7        30.00F
MCALESTER      SUNNY     88  62  41 S8        30.04F
OKLAHOMA CITY  SUNNY     91  56  30 SW8       30.04F

......IOWA............

CITY           SKY/WX    TMP DP  RH WIND       PRES   REMARKS
DES MOINES     SUNNY     72  37  28 NE8       30.07S
QUAD CITIES    SUNNY     72  33  24 NW14G20   30.00S

......ILLINOIS........

CITY           SKY/WX    TMP DP  RH WIND       PRES   REMARKS
QUINCY         SUNNY     76  46  34 NW8       30.02S HAZE
CHICAGO        MOSUNNY   71  27  19 W18       29.90F




USA.gov is the U.S. government's official web portal to all federal, state and local government web resources and services.